(166100) = 2002 CK158

Discovered at Socorro on 2002-02-07 by LINEAR.

Orbit

Orbit type: Main Belt

Note: WebGL enabled browser required.

epoch2023-09-13.0
epoch JD2460200.5
perihelion date2021-06-29.83102
perihelion JD2459395.33102
argument of perihelion (°)316.25967
ascending node (°)127.45393
inclination (°)1.98322
eccentricity0.1028629
perihelion distance (AU)1.9898595
Tisserand w.r.t. Jupiter3.6
ΔV w.r.t. Earth (km/sec)8.7
semimajor axis (AU)2.2180105
mean anomaly (°)240.24010
mean daily motion (°/day)0.29837230
aphelion distance (AU)2.446
period (years)3.3
P-vector [x]0.10916971
P-vector [y]0.92125170
P-vector [z]0.37333267
Q-vector [x]-0.99364342
Q-vector [y]0.09075881
Q-vector [z]0.06660026
absolute magnitude17.28
phase slope0.15
uncertainty0
referenceMPEC 2023-X102
observations used614
oppositions18
arc length (days)11513
first opposition used1992
last opposition used2023
residual rms (arc-secs)0.79
perturbers coarse indicatorM-v
perturbers precise indicator003Ek
first observation date used1992-02-09.0
last observation date used2023-08-18.0
computer nameMPCLINUX
JD of orbit computation2456494.380522
perihelion JD uncertainty (days)1.0654E-04
argument of perihelion uncertainty (°)1.4068E-04
ascending node uncertainty (°)1.3729E-04
inclination uncertainty (°)4.9470E-06
eccentricity uncertainty 3.4913E-08
perihelion distance uncertainty (AU)7.7656E-08
Minimum Orbit Intersection Distances (in AU)
for orbit epoch: 2460200.5, reference: E2023-XA2
Mercury1.68361
Venus1.27029
Earth1.00522
Mars0.39727
Jupiter2.71426
Saturn7.06101
Uranus16.2417
Neptune27.7099

Observations

625 total observations over interval: 1992 02 09.34307 – 2023 08 18.313546
These data are available for download (format description).

Date (UT) J2000 RA J2000 Dec Magn Location Ref
1992 02 09.34307 08 19 55.33 +19 46 30.2 20.1 V 691 – Steward Observatory, Kitt Peak-Spacewatch MPS 54730
1992 02 09.36935 08 19 53.82 +19 46 37.4   691 – Steward Observatory, Kitt Peak-Spacewatch MPS 54730
1996 05 21.23770 15 16 18.02 -14 47 13.0   691 – Steward Observatory, Kitt Peak-Spacewatch MPS 178309
1996 05 21.25940 15 16 16.65 -14 47 08.8 21.0 V 691 – Steward Observatory, Kitt Peak-Spacewatch MPS 178309
1996 05 21.28096 15 16 15.29 -14 47 04.2   691 – Steward Observatory, Kitt Peak-Spacewatch MPS 178309
2000 07 29.50803 21 37 49.39 -14 38 29.6 18.7 R 474 – Mount John Observatory, Lake Tekapo MPS 54730
2000 07 29.51733 21 37 48.87 -14 38 32.6 18.8 R 474 – Mount John Observatory, Lake Tekapo MPS 54730
2000 07 29.52965 21 37 48.20 -14 38 36.6 19.3 R 474 – Mount John Observatory, Lake Tekapo MPS 54730
2002 01 21.30411 09 59 18.69 +12 48 19.1 19.7   704 – Lincoln Laboratory ETS, New Mexico MPS 55532
2002 01 21.34899 09 59 16.75 +12 48 33.6 20.1   704 – Lincoln Laboratory ETS, New Mexico MPS 55532
2002 01 21.36429 09 59 16.06 +12 48 38.3 19.7   704 – Lincoln Laboratory ETS, New Mexico MPS 55532
2002 02 07.24114 09 44 13.14 +14 32 06.3 19.8 V 691 – Steward Observatory, Kitt Peak-Spacewatch MPS 55532
2002 02 07.26323 09 44 11.71 +14 32 15.1 19.5 V 691 – Steward Observatory, Kitt Peak-Spacewatch MPS 55532
2002 02 07.28538 09 44 10.30 +14 32 24.0 19.3 V 691 – Steward Observatory, Kitt Peak-Spacewatch MPS 55532
2002 02 07.33105 09 44 07.24 +14 32 39.6 19.9   704 – Lincoln Laboratory ETS, New Mexico MPS 50339
2002 02 07.34545 09 44 06.37 +14 32 43.9 19.9   704 – Lincoln Laboratory ETS, New Mexico MPS 50339
2002 02 07.35988 09 44 05.39 +14 32 49.2 20.0   704 – Lincoln Laboratory ETS, New Mexico MPS 50339
2002 02 07.37446 09 44 04.45 +14 32 55.4 20.1   704 – Lincoln Laboratory ETS, New Mexico MPS 50339
2002 02 12.18823 09 39 06.53 +15 04 32.8 20.4 V 333 – Desert Eagle Observatory MPS 55532
2002 02 12.22663 09 39 04.02 +15 04 47.8 20.4 V 333 – Desert Eagle Observatory MPS 55532
2002 02 12.26623 09 39 01.47 +15 05 03.2 20.1 V 333 – Desert Eagle Observatory MPS 55532
2002 02 12.30568 09 38 58.86 +15 05 18.2 19.3   704 – Lincoln Laboratory ETS, New Mexico MPS 50339
2002 02 12.31981 09 38 57.97 +15 05 24.1 19.0   704 – Lincoln Laboratory ETS, New Mexico MPS 50339
2002 02 12.34811 09 38 56.12 +15 05 34.8 18.9   704 – Lincoln Laboratory ETS, New Mexico MPS 50339
2002 02 12.36228 09 38 55.17 +15 05 40.4 18.8   704 – Lincoln Laboratory ETS, New Mexico MPS 50339
2002 02 20.25020 09 30 57.70 +15 54 20.6 19.9   704 – Lincoln Laboratory ETS, New Mexico MPS 55532
2002 02 20.26394 09 30 56.94 +15 54 24.1 20.0   704 – Lincoln Laboratory ETS, New Mexico MPS 55532
2002 02 20.27782 09 30 56.14 +15 54 30.2 19.5   704 – Lincoln Laboratory ETS, New Mexico MPS 55532
2002 02 20.29161 09 30 55.27 +15 54 33.3 19.8   704 – Lincoln Laboratory ETS, New Mexico MPS 55532
2002 03 05.23666 09 20 11.59 +16 57 30.8 19.4 R 699 – Lowell Observatory-LONEOS MPS 55532
2002 03 05.25548 09 20 10.84 +16 57 35.2   699 – Lowell Observatory-LONEOS MPS 55532
2002 03 05.27436 09 20 09.92 +16 57 40.1   699 – Lowell Observatory-LONEOS MPS 55532
2002 03 05.29326 09 20 09.24 +16 57 45.0   699 – Lowell Observatory-LONEOS MPS 55532
2002 03 13.13789 09 15 57.10 +17 22 16.0 20.2   644 – Palomar Mountain/NEAT MPS 55532
2002 03 13.15065 09 15 56.76 +17 22 18.1 20.5   644 – Palomar Mountain/NEAT MPS 55532
2002 03 13.16368 09 15 56.40 +17 22 19.7 20.3   644 – Palomar Mountain/NEAT MPS 55532
2002 03 14.11859 09 15 34.15 +17 24 33.6 19.0   704 – Lincoln Laboratory ETS, New Mexico MPS 55532
2002 03 14.13113 09 15 33.85 +17 24 34.6 19.9   704 – Lincoln Laboratory ETS, New Mexico MPS 55532
2002 03 14.14375 09 15 33.49 +17 24 37.8 20.1   704 – Lincoln Laboratory ETS, New Mexico MPS 55532
2002 03 14.15645 09 15 33.28 +17 24 39.9 19.1   704 – Lincoln Laboratory ETS, New Mexico MPS 55532
2002 03 14.16920 09 15 32.89 +17 24 40.8 19.9   704 – Lincoln Laboratory ETS, New Mexico MPS 55532
2004 12 08.30789 05 27 32.85 +20 19 05.4 19.5   704 – Lincoln Laboratory ETS, New Mexico MPS 121157
2004 12 08.34671 05 27 30.14 +20 19 03.2 20.2   704 – Lincoln Laboratory ETS, New Mexico MPS 121157
2004 12 08.36317 05 27 28.98 +20 19 03.0 20.2   704 – Lincoln Laboratory ETS, New Mexico MPS 121157
2004 12 08.37690 05 27 28.07 +20 19 01.9 20.3   704 – Lincoln Laboratory ETS, New Mexico MPS 121157
2004 12 10.21676 05 25 24.43 +20 18 58.2 19.1 V 691 – Steward Observatory, Kitt Peak-Spacewatch MPS 121157
2004 12 10.24395 05 25 22.50 +20 18 58.2 19.1 V 691 – Steward Observatory, Kitt Peak-Spacewatch MPS 121157
2004 12 10.26994 05 25 20.65 +20 18 58.3 19.0 V 691 – Steward Observatory, Kitt Peak-Spacewatch MPS 121157
2004 12 10.27460 05 25 20.24 +20 18 58.0 19.7   704 – Lincoln Laboratory ETS, New Mexico MPS 121700
2004 12 10.28726 05 25 19.40 +20 18 58.5 19.4   704 – Lincoln Laboratory ETS, New Mexico MPS 121700
2004 12 10.30001 05 25 18.46 +20 18 58.2 19.6   704 – Lincoln Laboratory ETS, New Mexico MPS 121700
2004 12 10.31223 05 25 17.62 +20 18 58.1 19.7   704 – Lincoln Laboratory ETS, New Mexico MPS 121700
2004 12 10.32482 05 25 16.76 +20 18 57.7 19.4   704 – Lincoln Laboratory ETS, New Mexico MPS 121700
2004 12 16.25937 05 18 32.63 +20 19 05.3 19.4   704 – Lincoln Laboratory ETS, New Mexico MPS 121700
2004 12 16.27617 05 18 31.49 +20 19 04.6 19.6   704 – Lincoln Laboratory ETS, New Mexico MPS 121700
2004 12 16.29104 05 18 30.39 +20 19 05.8 19.8   704 – Lincoln Laboratory ETS, New Mexico MPS 121700
2004 12 16.30458 05 18 29.46 +20 19 05.1 19.6   704 – Lincoln Laboratory ETS, New Mexico MPS 121700
2004 12 16.31935 05 18 28.38 +20 19 04.8 19.5   704 – Lincoln Laboratory ETS, New Mexico MPS 121700
2005 01 06.22075 04 59 06.39 +20 28 07.5 19.3   704 – Lincoln Laboratory ETS, New Mexico MPS 123485
2005 01 06.23445 04 59 05.83 +20 28 07.7 19.7   704 – Lincoln Laboratory ETS, New Mexico MPS 123485
2005 01 06.24759 04 59 05.32 +20 28 08.5 19.8   704 – Lincoln Laboratory ETS, New Mexico MPS 123485
2006 05 21.31990 16 11 15.57 -17 57 49.0 19.2 V G96 – Mt. Lemmon Survey MPS 171939
2006 05 21.32711 16 11 15.03 -17 57 46.6 19.6 V G96 – Mt. Lemmon Survey MPS 171939
2006 05 21.33432 16 11 14.53 -17 57 45.9 19.8 V G96 – Mt. Lemmon Survey MPS 171939
2006 05 21.34168 16 11 14.02 -17 57 44.8 19.2 V G96 – Mt. Lemmon Survey MPS 171939
2007 09 22.29392 01 37 16.50 +06 37 45.2 19.2 C 704 – Lincoln Laboratory ETS, New Mexico MPS 291365
2007 09 22.30615 01 37 15.83 +06 37 40.9 19.5 C 704 – Lincoln Laboratory ETS, New Mexico MPS 291365
2007 09 22.34238 01 37 14.49 +06 37 30.8 18.7 C 704 – Lincoln Laboratory ETS, New Mexico MPS 291365
2007 10 04.32219 01 28 08.86 +05 28 59.5 19.7 V 703 – Catalina Sky Survey MPS 218056
2007 10 04.32981 01 28 08.47 +05 28 56.6 19.8 V 703 – Catalina Sky Survey MPS 218056
2007 10 04.33743 01 28 08.04 +05 28 53.5 19.4 V 703 – Catalina Sky Survey MPS 218056
2007 10 04.34502 01 28 07.60 +05 28 51.4 19.7 V 703 – Catalina Sky Survey MPS 218056
2007 10 06.25523 01 26 24.78 +05 16 48.2 19.7   704 – Lincoln Laboratory ETS, New Mexico MPS 218499
2007 10 06.27725 01 26 23.36 +05 16 38.9 20.0   704 – Lincoln Laboratory ETS, New Mexico MPS 218499
2007 10 06.28806 01 26 22.78 +05 16 34.3 20.2   704 – Lincoln Laboratory ETS, New Mexico MPS 218499
2007 10 06.29885 01 26 22.20 +05 16 31.0 20.4   704 – Lincoln Laboratory ETS, New Mexico MPS 218499
2007 10 08.33280 01 24 28.87 +05 03 30.4 19.5 V G96 – Mt. Lemmon Survey MPS 218499
2007 10 08.33957 01 24 28.47 +05 03 27.5 19.4 V G96 – Mt. Lemmon Survey MPS 218499
2007 10 08.34635 01 24 28.08 +05 03 25.4 19.2 V G96 – Mt. Lemmon Survey MPS 218499
2007 10 08.35307 01 24 27.68 +05 03 22.5 19.4 V G96 – Mt. Lemmon Survey MPS 218499
2007 10 08.38062 01 24 26.06 +05 03 11.9 19.3 V G96 – Mt. Lemmon Survey MPS 218499
2007 10 08.38629 01 24 25.74 +05 03 09.7 19.3 V G96 – Mt. Lemmon Survey MPS 218499
2007 10 08.39196 01 24 25.41 +05 03 07.6 19.3 V G96 – Mt. Lemmon Survey MPS 218499
2007 10 08.39771 01 24 25.05 +05 03 05.4 19.3 V G96 – Mt. Lemmon Survey MPS 218499
2007 10 09.27436 01 23 35.65 +04 57 26.8 19.5 R 683 – Goodricke-Pigott Observatory, Tucson MPS 218499
